Location: Marsån
(66.4167°N, 22.2833°E)
Time: 09:46:34
(UTC+00:00)

Cosmos 1954 Rocket - Pass Details

Date: 24 February 2024
Orbit: 750 x 780 km, 74.0° (Epoch: 15 April)

Event Time Altitude Azimuth Distance (km) Brightness Sun altitude
Rises 16:30:34 0° 192° (SSW) 3,195 7.5 -7.3°
Reaches altitude 10° 16:33:00 10° 187° (S) 2,274 6.6 -7.6°
Maximum altitude 16:37:52 45° 116° (ESE) 1,024 4.3 -8.0°
Drops below altitude 10° 16:42:47 10° 45° (NE) 2,293 6.0 -8.5°
Sets 16:45:15 0° 39° (NE) 3,225 6.8 -8.8°
